Change the Weather History Date:

Thursday, January 30, 2014

  Actual Average Record
Temperature  
Mean Temperature 21 °F 19 °F  
Max Temperature 30 °F 29 °F 62 °F (2013)
Min Temperature 12 °F 8 °F -24 °F (2010)
Degree Days  
Heating Degree Days 44 46  
Month to date heating degree days 1460 1365  
Since 1 July heating degree days 4297 4161  
Cooling Degree Days 0 0  
Month to date cooling degree days 0 0  
Year to date cooling degree days 0 0  
Moisture  
Dew Point 8 °F    
Average Humidity 58    
Maximum Humidity 84    
Minimum Humidity 31    
Precipitation  
Precipitation 0.09 in 0.08 in 0.66 in (1971)
Month to date precipitation 3.43 2.58  
Year to date precipitation 3.43 2.58  
Sea Level Pressure  
Sea Level Pressure 30.18 in    
Wind  
Wind Speed 10 mph (SSW)    
Max Wind Speed 18 mph    
Max Gust Speed 31 mph    
Visibility 5 miles    
Events Snow    
T = Trace of Precipitation, MM = Missing Value Source: NWS Daily Summary

Daily Weather History Graph

Daily Weather History Graph

Search for Another Location

Airport or City:

Trip Planner

Search our weather history database for the weather conditions in past years. The results will help you decide how hot, cold, wet, or windy it might be!

Date:

Astronomy

Jan. 30, 2014 Rise Set
Actual Time 7:23 AM EST 5:11 PM EST
Civil Twilight 6:52 AM EST 5:42 PM EST
Nautical Twilight 6:18 AM EST 6:17 PM EST
Astronomical Twilight 5:44 AM EST 6:51 PM EST
Moon 6:46 AM EST (1/30) 5:22 PM EST (1/30)
Length of Visible Light 10h 49m
Length of Day
9h 48m
Waning Crescent, 0% of the Moon is Illuminated
Jan 30
Waning Crescent
Jan 30
New
Feb 6
First Quarter
Feb 14
Full
Feb 22
Last Quarter

Hourly Weather History & Observations

Time (EST) Temp. Windchill Dew Point Humidity Pressure Visibility Wind Dir Wind Speed Gust Speed Precip Events Conditions
12:13 AM 17.6 °F 9.3 °F 10.4 °F 73% 30.18 in 1.5 mi West 5.8 mph - 0.01 in Snow Light Snow
12:20 AM 15.8 °F 6.1 °F 10.4 °F 79% 30.18 in 2.0 mi West 6.9 mph - 0.01 in Snow Light Snow
12:29 AM 17.6 °F 10.7 °F 10.4 °F 73% 30.18 in 4.0 mi West 4.6 mph - 0.01 in Snow Light Snow
12:44 AM 15.8 °F 8.6 °F 8.6 °F 73% 30.18 in 2.5 mi WNW 4.6 mph - 0.01 in Snow Light Snow
12:52 AM 15.8 °F 10.2 °F 8.6 °F 73% 30.18 in 4.0 mi WNW 3.5 mph - 0.01 in Snow Light Snow
12:56 AM 15.1 °F 7.7 °F 9.0 °F 77% 30.22 in 3.0 mi WNW 4.6 mph - 0.01 in Snow Light Snow
1:02 AM 15.8 °F 8.6 °F 8.6 °F 73% 30.19 in 1.8 mi West 4.6 mph - 0.00 in Snow Light Snow
1:22 AM 19.4 °F 8.6 °F 12.2 °F 74% 30.19 in 0.8 mi WSW 9.2 mph - 0.00 in Snow Light Snow
1:32 AM 19.4 °F 7.9 °F 14.0 °F 80% 30.19 in 0.5 mi SW 10.4 mph - 0.00 in Snow Snow
1:41 AM 19.4 °F 7.9 °F 14.0 °F 80% 30.19 in 0.2 mi SW 10.4 mph - 0.02 in Snow Heavy Snow
1:54 AM 19.4 °F 7.2 °F 14.0 °F 80% 30.20 in 0.5 mi SW 11.5 mph - 0.02 in Snow Snow
1:56 AM 19.9 °F 7.9 °F 14.0 °F 78% 30.23 in 0.5 mi SW 11.5 mph - 0.03 in Snow Snow
2:14 AM 19.4 °F 7.9 °F 12.2 °F 74% 30.20 in 1.0 mi SW 10.4 mph - 0.00 in Snow Light Snow
2:30 AM 19.4 °F 10.4 °F 14.0 °F 80% 30.20 in 0.8 mi WSW 6.9 mph - 0.00 in Snow Light Snow
2:56 AM 19.9 °F 10.1 °F 15.1 °F 81% 30.24 in 0.5 mi SW 8.1 mph - 0.02 in Snow Snow
3:04 AM 19.4 °F 7.2 °F 15.8 °F 86% 30.21 in 0.2 mi SW 11.5 mph 16.1 mph 0.01 in Snow Heavy Snow
3:19 AM 19.4 °F 6.6 °F 14.0 °F 80% 30.21 in 0.5 mi SW 12.7 mph - 0.02 in Snow Snow
3:49 AM 15.8 °F 6.1 °F 8.6 °F 73% 30.21 in 1.0 mi South 6.9 mph - 0.03 in Snow Light Snow
3:56 AM 16.0 °F 6.3 °F 10.0 °F 77% 30.24 in 1.2 mi South 6.9 mph - 0.03 in Snow Light Snow
4:08 AM 15.8 °F 6.1 °F 10.4 °F 79% 30.21 in 2.0 mi South 6.9 mph - 0.00 in Snow Light Snow
4:20 AM 17.6 °F 7.3 °F 10.4 °F 73% 30.21 in 4.0 mi South 8.1 mph - 0.00 in Snow Light Snow
4:51 AM 15.8 °F 4.2 °F 8.6 °F 73% 30.22 in 2.0 mi South 9.2 mph - 0.00 in Snow Light Snow
4:56 AM 16.0 °F 5.3 °F 9.0 °F 74% 30.25 in 2.0 mi South 8.1 mph - 0.00 in Snow Light Snow
5:04 AM 15.8 °F 6.1 °F 8.6 °F 73% 30.23 in 1.8 mi South 6.9 mph - 0.00 in Snow Light Snow
5:52 AM 15.8 °F 3.4 °F 8.6 °F 73% 30.23 in 2.0 mi South 10.4 mph 19.6 mph 0.00 in Snow Light Snow
5:56 AM 16.0 °F 2.9 °F 8.1 °F 71% 30.26 in 2.0 mi SSW 11.5 mph 19.6 mph 0.00 in Snow Light Snow
6:35 AM 15.8 °F 5.1 °F 6.8 °F 68% 30.25 in 4.0 mi South 8.1 mph - 0.00 in Snow Light Snow
6:56 AM 15.1 °F 1.1 °F 5.0 °F 64% 30.28 in 6.0 mi South 12.7 mph 19.6 mph 0.00 in Snow Light Snow
7:44 AM 12.2 °F -0.2 °F 1.4 °F 62% 30.27 in 10.0 mi South 9.2 mph 16.1 mph 0.00 in   Mostly Cloudy
7:52 AM 12.2 °F 1.7 °F 1.4 °F 62% 30.28 in 10.0 mi South 6.9 mph - 0.00 in   Scattered Clouds
7:56 AM 12.9 °F 2.6 °F 1.9 °F 62% 30.32 in 10.0 mi South 6.9 mph - 0.00 in   Partly Cloudy
8:56 AM 16.0 °F 5.3 °F 3.0 °F 57% 30.33 in 10.0 mi South 8.1 mph - N/A   Clear
9:56 AM 18.0 °F 6.1 °F 3.0 °F 52% 30.32 in 10.0 mi SSW 10.4 mph 17.3 mph N/A   Clear
10:56 AM 21.0 °F 9.3 °F 3.9 °F 48% 30.30 in 10.0 mi SSW 11.5 mph 19.6 mph N/A   Clear
11:56 AM 23.0 °F 11.7 °F 3.9 °F 44% 30.28 in 10.0 mi South 11.5 mph 20.7 mph N/A   Clear
12:56 PM 25.0 °F 14.8 °F 3.9 °F 41% 30.22 in 10.0 mi South 10.4 mph 18.4 mph N/A   Clear
1:56 PM 27.0 °F 18.7 °F 5.0 °F 39% 30.19 in 10.0 mi SSW 8.1 mph 17.3 mph N/A   Clear
2:56 PM 27.0 °F 17.3 °F 3.9 °F 37% 30.15 in 10.0 mi SSW 10.4 mph 19.6 mph N/A   Clear
3:56 PM 28.0 °F 19.3 °F 1.9 °F 33% 30.14 in 10.0 mi SSW 9.2 mph - N/A   Clear
4:56 PM 25.0 °F 20.7 °F 3.0 °F 39% 30.10 in 10.0 mi South 3.5 mph - N/A   Clear
5:56 PM 25.0 °F 16.3 °F 3.0 °F 39% 30.07 in 10.0 mi SSE 8.1 mph - N/A   Clear
6:56 PM 26.1 °F 17.6 °F 3.9 °F 39% 30.03 in 10.0 mi South 8.1 mph 18.4 mph N/A   Clear
7:56 PM 27.0 °F 16.1 °F 3.0 °F 36% 29.98 in 10.0 mi South 12.7 mph 19.6 mph N/A   Clear
8:56 PM 28.9 °F 19.2 °F 3.9 °F 35% 29.92 in 10.0 mi South 11.5 mph 25.3 mph N/A   Clear
9:56 PM 28.9 °F 17.3 °F 3.0 °F 33% 29.89 in 8.0 mi South 16.1 mph 25.3 mph N/A   Clear
10:56 PM 28.9 °F 17.7 °F 3.9 °F 35% 29.87 in 10.0 mi South 15.0 mph 27.6 mph N/A   Overcast
11:56 PM 28.9 °F 17.3 °F 3.9 °F 35% 29.89 in 8.0 mi South 16.1 mph 27.6 mph N/A   Overcast